Total_Precipitation_Accumulation
0.59 0.41 0.58 0.61 0.54 0.53 0.51 0.51 0.48 0.45 0.43 0.40 0.36 0.35 0.35 0.33 0.35 0.37 0.36 0.27 0.21 0.19 0.18 0.25 0.31 0.25 0.26 0.31 0.34 0.39 0.45 0.46 0.39 0.32 0.33 0.36 0.36 0.41 0.56 0.69 0.82 0.85 0.63
0.46 0.40 0.65 0.67 0.63 0.60 0.56 0.52 0.50 0.46 0.40 0.40 0.40 0.37 0.37 0.37 0.39 0.37 0.31 0.25 0.21 0.19 0.20 0.27 0.32 0.28 0.29 0.37 0.46 0.54 0.59 0.53 0.45 0.36 0.45 0.50 0.46 0.50 0.59 0.69 0.94 0.90 0.59
0.42 0.41 0.57 0.73 0.73 0.67 0.62 0.57 0.57 0.52 0.43 0.42 0.44 0.42 0.36 0.34 0.32 0.30 0.29 0.25 0.22 0.22 0.23 0.28 0.33 0.30 0.31 0.41 0.52 0.55 0.57 0.55 0.47 0.49 0.85 1.37 0.98 0.66 0.62 0.75 0.78 0.67 0.54
0.40 0.43 0.55 0.79 0.83 0.76 0.70 0.68 0.78 0.71 0.58 0.52 0.49 0.46 0.40 0.35 0.37 0.43 0.43 0.33 0.28 0.27 0.26 0.30 0.37 0.31 0.32 0.40 0.45 0.44 0.47 0.47 0.52 0.72 1.29 1.70 1.44 0.92 0.83 0.83 0.75 0.67 0.56
0.42 0.45 0.71 0.88 0.80 0.76 0.76 0.88 1.02 0.94 0.83 0.71 0.60 0.53 0.49 0.45 0.46 0.52 0.46 0.43 0.40 0.35 0.33 0.38 0.41 0.36 0.34 0.34 0.35 0.35 0.45 0.61 0.77 0.90 1.25 1.41 1.46 1.13 0.95 0.84 0.78 0.68 0.64
0.47 0.49 0.64 0.79 0.78 0.80 0.84 0.94 1.01 1.04 1.05 0.86 0.70 0.65 0.64 0.62 0.60 0.62 0.61 0.55 0.53 0.49 0.47 0.47 0.43 0.42 0.40 0.39 0.36 0.38 0.52 0.73 0.87 1.03 1.25 1.31 1.27 1.04 0.93 0.83 0.82 0.79 0.75
0.42 0.45 0.52 0.67 0.67 0.72 0.82 0.91 0.93 1.02 1.10 0.96 0.74 0.74 0.77 0.70 0.70 0.72 0.74 0.64 0.61 0.58 0.55 0.56 0.50 0.47 0.45 0.44 0.43 0.45 0.53 0.57 0.72 0.95 1.23 1.39 1.11 0.90 0.89 0.81 0.81 0.84 0.86
0.54 0.49 0.52 0.63 0.66 0.70 0.80 0.91 0.85 0.92 1.03 0.97 0.87 0.81 0.76 0.75 0.79 0.80 0.76 0.71 0.65 0.63 0.61 0.63 0.61 0.54 0.49 0.47 0.47 0.52 0.55 0.50 0.55 0.70 0.80 1.17 1.23 1.07 0.85 0.80 0.84 0.79 0.77
0.92 0.79 0.63 0.56 0.57 0.64 0.76 0.88 0.91 0.92 0.96 0.93 0.99 0.94 0.91 0.88 0.82 0.77 0.75 0.74 0.72 0.70 0.69 0.66 0.62 0.58 0.54 0.49 0.46 0.52 0.59 0.52 0.58 0.63 0.62 0.98 1.20 1.12 0.85 0.76 0.80 0.84 0.79
0.98 0.92 0.80 0.71 0.69 0.70 0.67 0.83 1.03 1.11 1.08 0.99 0.97 0.97 0.97 0.91 0.81 0.76 0.69 0.70 0.73 0.74 0.77 0.77 0.68 0.64 0.61 0.54 0.51 0.58 0.61 0.52 0.50 0.51 0.60 0.79 1.11 1.12 0.96 0.72 0.65 0.64 0.62
0.80 0.80 0.82 0.85 0.88 0.94 0.93 0.92 1.14 1.23 1.15 0.97 0.87 0.90 0.92 0.78 0.80 0.81 0.70 0.81 0.80 0.83 0.87 0.86 0.80 0.74 0.64 0.55 0.58 0.65 0.54 0.45 0.55 0.51 0.56 0.69 0.97 1.03 0.96 0.77 0.56 0.49 0.46
0.64 0.65 0.66 0.69 0.77 0.89 0.97 1.30 1.50 1.30 1.19 0.92 0.91 0.81 0.87 0.94 1.02 0.85 0.79 0.94 0.96 0.99 0.95 0.93 0.94 0.84 0.67 0.49 0.53 0.58 0.41 0.44 0.53 0.43 0.48 0.67 0.91 0.94 0.85 0.72 0.54 0.44 0.42
0.50 0.48 0.48 0.47 0.49 0.58 0.78 1.12 1.41 1.52 1.48 1.40 1.16 0.93 0.94 0.82 0.72 0.67 0.69 0.79 0.87 0.94 0.88 0.90 0.87 0.72 0.62 0.56 0.50 0.41 0.37 0.40 0.54 0.53 0.57 0.71 0.83 0.92 0.85 0.72 0.55 0.45 0.39
0.48 0.48 0.45 0.44 0.41 0.43 0.52 0.69 0.89 1.03 1.12 1.14 0.99 0.88 0.95 0.84 0.74 0.75 0.75 0.75 0.75 0.82 0.90 0.92 0.84 0.72 0.61 0.53 0.49 0.46 0.44 0.43 0.57 0.70 0.76 0.64 0.72 0.83 0.86 0.75 0.60 0.51 0.44
0.52 0.59 0.56 0.47 0.44 0.43 0.47 0.54 0.62 0.77 0.86 0.89 0.91 0.86 0.90 0.90 0.87 0.84 0.77 0.77 0.71 0.77 0.86 0.90 0.83 0.74 0.69 0.61 0.58 0.61 0.60 0.60 0.63 0.64 0.71 0.67 0.74 0.86 0.95 0.90 0.74 0.58 0.49
0.53 0.60 0.65 0.57 0.52 0.48 0.46 0.49 0.54 0.64 0.72 0.76 0.75 0.75 0.85 0.94 0.93 0.89 0.85 0.86 0.83 0.84 0.95 0.93 0.81 0.82 0.79 0.69 0.58 0.59 0.61 0.64 0.67 0.62 0.65 0.75 0.76 0.74 0.90 1.04 0.98 0.74 0.65
0.53 0.56 0.59 0.60 0.60 0.59 0.57 0.56 0.56 0.63 0.73 0.75 0.72 0.67 0.69 0.78 0.83 0.86 0.87 0.87 0.91 0.99 1.04 1.06 0.88 0.84 0.76 0.67 0.61 0.58 0.54 0.55 0.55 0.58 0.52 0.51 0.59 0.68 0.81 0.99 1.06 0.90 0.81
0.46 0.47 0.52 0.54 0.59 0.65 0.68 0.69 0.71 0.71 0.78 0.75 0.74 0.68 0.63 0.68 0.76 0.90 0.90 0.88 0.90 1.02 1.10 1.13 1.02 0.92 0.80 0.73 0.72 0.66 0.60 0.59 0.54 0.57 0.54 0.47 0.54 0.52 0.67 0.74 0.84 0.89 0.89
0.41 0.41 0.44 0.48 0.51 0.62 0.70 0.73 0.82 0.84 0.86 0.83 0.82 0.74 0.71 0.76 0.83 1.00 1.10 1.11 1.11 1.11 1.09 1.05 1.07 1.00 0.89 0.85 0.82 0.77 0.71 0.63 0.61 0.53 0.54 0.54 0.48 0.48 0.54 0.46 0.51 0.56 0.70
0.32 0.34 0.38 0.43 0.45 0.53 0.68 0.80 0.96 1.07 1.04 1.06 1.00 0.89 0.91 1.05 1.18 1.32 1.31 1.39 1.45 1.31 1.25 1.17 1.18 1.11 0.99 0.96 0.91 0.78 0.73 0.65 0.66 0.62 0.62 0.60 0.55 0.49 0.54 0.47 0.40 0.35 0.43
0.22 0.25 0.31 0.34 0.42 0.50 0.58 0.73 0.95 1.22 1.33 1.43 1.39 1.21 1.16 1.28 1.52 1.72 1.68 1.72 1.73 1.58 1.51 1.58 1.75 1.68 1.39 1.14 1.09 0.91 0.76 0.63 0.70 0.67 0.61 0.61 0.60 0.65 0.68 0.63 0.47 0.38 0.32
0.16 0.17 0.22 0.30 0.39 0.48 0.57 0.75 0.91 1.06 1.07 1.24 1.40 1.38 1.30 1.29 1.43 1.57 1.82 1.89 1.81 1.80 1.91 1.94 2.22 2.32 1.89 1.48 1.41 1.46 1.19 0.99 0.74 0.58 0.58 0.56 0.59 0.77 0.75 0.64 0.55 0.41 0.34
0.10 0.12 0.15 0.22 0.32 0.45 0.61 0.85 1.07 1.26 1.34 1.41 1.34 1.43 1.44 1.37 1.41 1.50 1.66 1.81 1.81 1.86 1.92 2.04 2.35 2.75 2.46 1.97 1.74 1.86 1.52 1.32 1.15 0.74 0.56 0.55 0.61 0.77 0.85 0.80 0.72 0.59 0.47
0.08 0.09 0.12 0.20 0.35 0.56 0.78 1.04 1.30 1.50 1.54 1.43 1.48 1.51 1.39 1.33 1.30 1.37 1.50 1.63 1.75 1.76 1.87 1.96 2.07 2.50 2.76 2.44 2.17 1.83 1.49 1.37 1.41 1.18 0.80 0.65 0.69 0.73 0.80 0.80 0.77 0.76 0.70
0.14 0.16 0.23 0.43 0.68 0.93 1.14 1.41 1.70 1.70 1.59 1.50 1.50 1.47 1.42 1.43 1.40 1.39 1.53 1.59 1.59 1.65 1.74 2.05 2.30 2.54 2.69 2.59 2.48 2.32 2.07 1.74 1.33 1.36 1.29 0.99 0.86 0.79 0.80 0.84 0.85 0.83 0.82
0.44 0.58 0.79 1.05 1.24 1.33 1.46 1.61 1.73 1.71 1.72 1.67 1.49 1.39 1.39 1.43 1.49 1.53 1.59 1.58 1.54 1.57 1.67 1.88 2.14 2.35 2.62 2.76 2.63 2.42 2.27 2.06 1.77 1.59 1.37 1.26 1.19 0.99 0.95 0.95 0.90 0.91 0.92